Regional Weather Roundup
Issued by NWS Green Bay, WI

Home | Current Version | Previous Version | Graphics & Text | Print | Product List | Glossary Off
Versions: 1 2 3 4 5 6 7 8 9 10 11 12 13 14 15 16 17 18 19 20 21 22 23 24 25 26 27 28 29 30 31 32 33 34 35 36 37 38 39 40 41 42 43 44 45 46 47 48 49 50

000
ASUS43 KGRB 270711
RWRGRB

NORTH-CENTRAL AND NORTHEAST WISCONSIN REGIONAL WEATHER ROUNDUP
NATIONAL WEATHER SERVICE GREEN BAY WI
200 AM CDT THU JUL 27 2017

WIZ005-009-010>012-018-019-270800-
NORTH CENTRAL WISCONSIN

CITY           SKY/WX    TMP DP  RH WIND       PRES   REMARKS
IRONWOOD       FOG       55  55 100 CALM      30.05R VSB 1/2
MANITOWISH WTR PTCLDY    54  54 100 CALM      30.05R
ARBOR VITAE    CLEAR     57  55  95 N3        30.04S
EAGLE RIVER    PTCLDY    54  54 100 CALM      30.04S FOG
LAND O LAKES   CLEAR     53  53 100 CALM      30.06R
RHINELANDER    CLEAR     53  53 100 CALM      30.04S FOG
PHILLIPS         N/A     57  57 100 CALM      30.04S FOG
ANTIGO         CLEAR     56  56 100 CALM      30.03S
TOMAHAWK       FOG       52  51  97 CALM      30.05S VSB 1/2
MERRILL        FOG       55  55 100 CALM      30.04S VSB 1/4
$$

WIZ013-073-270800-
NORTHEAST WISCONSIN

CITY           SKY/WX    TMP DP  RH WIND       PRES   REMARKS
IRON MOUNTAIN  PTCLDY    55  52  89 CALM      30.00S
MARINETTE      CLEAR     64  63  96 NW3       29.98S
OCONTO         PTCLDY    66  64  91 CALM      29.97S
$$

WIZ017-030-035>037-045-270800-
CENTRAL WISCONSIN

CITY           SKY/WX    TMP DP  RH WIND       PRES   REMARKS
MEDFORD        FOG       57  57  99 CALM      30.03S VSB 1/4
WAUSAU         FOG       62  62 100 CALM      30.00S VSB 3/4
MOSINEE        CLEAR     64  61  88 N7        30.02F
MARSHFIELD     CLEAR     65  60  84 N7        30.01S
WISC RAPIDS    CLEAR     65  65 100 NE5       30.00F
STEVENS POINT  PTCLDY    60  60 100 N3        30.00F FOG
WAUPACA        CLEAR     68  67  98 NW5       29.98F
SHAWANO        PTCLDY    69  65  86 N6        29.98S
CLINTONVILLE   PTCLDY   N/A N/A N/A N3        29.98S
WAUTOMA        PTCLDY    65  65 100 CALM      29.98F
$$

WIZ038-039-048-051-270800-
FOX VALLEY

CITY           SKY/WX    TMP DP  RH WIND       PRES   REMARKS
NWS GREEN BAY  PTCLDY    70  70 100 N7        29.96F
APPLETON       CLEAR     68  68 100 NW6       29.96S
OSHKOSH        PTCLDY    70  69  97 NW3       29.96S FOG
FOND DU LAC    FOG       67  66  97 CALM      29.96F VSB 3/4
$$

WIZ022-050-052-270800-
EAST CENTRAL WISCONSIN

CITY           SKY/WX    TMP DP  RH WIND       PRES   REMARKS
EPHRAIM        FAIR      66  62  85 CALM      29.97S
WASHINGTON ISL FOG       57  57 100 CALM      29.97S VSB 1/2
STURGEON BAY     N/A     69  64  84 E5        29.97S
MANITOWOC      CLEAR     69  67  93 NW3       29.95F
SHEBOYGAN      FOG       68  68 100 W3        29.95F VSB 1/2
$$

LMZ563-521-522-541>543-270800-
LAKESHORE

STATION/POSITION TIME  TEMP    WIND        PRES    VSBY  WAVE
                       AIR SEA DIR/SP/G                  HT/PER
                 (UTC) (F)     (DEG/KT/KT) (MB)    (MI)  (FT/S)
SHEBOYGAN LKSHOR 0700   70     240/  4/  4 1013.4F
KEWAUNEE LKSHORE 0648          310/  4/  6 1013.4F
NORTHPORT PIER   0640   65        CALM     1014.6F
N MID LAKE BUOY  0650   67 65  280/  2/  2 1015.3S         2/ 6
S GREEN BAY BUOY 0700   71 71   30/  8/ 10 1014.6
SISTER BAY LKSHO 0702   64        CALM       N/A
CHAMBERS ISLAND  0640   65      CALM  /  1 1014.2F
MENOMINEE LKSHOR 0648          330/  5/  6 1014.6F
$$




USA.gov is the U.S. government's official web portal to all federal, state and local government web resources and services.